Goldsboro, NC

12:50 PM EDT on August 27, 2016 (GMT -0400)
Seymour Johnson Air Force Base

Weather History for KGSB - May, 2013

Change the Weather History Date:

Saturday, May 11, 2013

  Actual Average Record
Temperature  
Mean Temperature 77 °F -  
Max Temperature 86 °F 79 °F 89 °F (2001)
Min Temperature 68 °F 57 °F 46 °F (1997)
Cooling Degree Days 12    
Growing Degree Days 27 (Base 50)    
Moisture  
Dew Point 62 °F    
Average Humidity 63    
Maximum Humidity 85    
Minimum Humidity 37    
Precipitation  
Precipitation 0.00 in - - ()
Sea Level Pressure  
Sea Level Pressure 29.90 in    
Wind  
Wind Speed 10 mph (SSW)    
Max Wind Speed 22 mph    
Max Gust Speed 26 mph    
Visibility 10 miles    
Events      
Averages and records for this station are not official NWS values.
T = Trace of Precipitation, MM = Missing Value Source: NWS Daily Summary

Daily Weather History Graph

Daily Weather History Graph

Search for Another Location

Airport or City:

Trip Planner

Search our weather history database for the weather conditions in past years. The results will help you decide how hot, cold, wet, or windy it might be!

Date:

Astronomy

May. 11, 2013 Rise Set
Actual Time 6:10 AM EDT 8:06 PM EDT
Civil Twilight 5:42 AM EDT 8:34 PM EDT
Nautical Twilight 5:08 AM EDT 9:08 PM EDT
Astronomical Twilight 4:32 AM EDT 9:44 PM EDT
Moon 7:17 AM EDT (5/11) 9:43 PM EDT (5/11)
Length of Visible Light 14h 51m
Length of Day
13h 55m
Waxing Crescent, 3% of the Moon is Illuminated
May 11
Waxing Crescent
May 18
First Quarter
May 25
Full
May 31
Last Quarter
Jun 8
New

Hourly Weather History & Observations

Time (EDT) Temp. Heat Index Dew Point Humidity Pressure Visibility Wind Dir Wind Speed Gust Speed Precip Events Conditions
12:58 AM 71.1 °F - 59.7 °F 67% 29.99 in 10.0 mi South 6.9 mph - N/A   Clear
1:58 AM 70.2 °F - 59.7 °F 69% 29.98 in 10.0 mi South 4.6 mph - N/A   Mostly Cloudy
2:58 AM 69.4 °F - 59.5 °F 71% 29.98 in 10.0 mi South 6.9 mph - N/A   Scattered Clouds
3:58 AM 69.4 °F - 59.4 °F 70% 29.97 in 10.0 mi South 8.1 mph - N/A   Overcast
4:58 AM 69.4 °F - 61.7 °F 76% 29.96 in 10.0 mi SSW 6.9 mph - N/A   Overcast
5:58 AM 69.1 °F - 63.5 °F 82% 29.96 in 10.0 mi SSW 10.4 mph - N/A   Mostly Cloudy
6:58 AM 68.9 °F - 64.2 °F 85% 29.96 in 10.0 mi South 9.2 mph - N/A   Mostly Cloudy
7:58 AM 70.3 °F - 65.3 °F 84% 29.96 in 10.0 mi SSW 11.5 mph - N/A   Clear
8:58 AM 73.2 °F - 66.2 °F 79% 29.95 in 10.0 mi SSW 11.5 mph 17.3 mph N/A   Mostly Cloudy
9:46 AM 75.2 °F - 66.2 °F 73% 29.93 in 10.0 mi SW 15.0 mph 23.0 mph N/A   Scattered Clouds
9:58 AM 76.3 °F - 66.6 °F 72% 29.94 in 10.0 mi SW 16.1 mph 21.9 mph N/A   Scattered Clouds
10:10 AM 77.0 °F - 66.2 °F 69% 29.92 in 10.0 mi SSW 15.0 mph 20.7 mph N/A   Mostly Cloudy
10:13 AM 77.0 °F - 66.2 °F 69% 29.92 in 10.0 mi SSW 11.5 mph 20.7 mph N/A   Scattered Clouds
10:58 AM 79.3 °F - 64.9 °F 61% 29.92 in 10.0 mi SW 12.7 mph - N/A   Partly Cloudy
11:58 AM 81.7 °F 83.2 °F 63.9 °F 55% 29.91 in 10.0 mi WSW 16.1 mph - N/A   Scattered Clouds
12:58 PM 83.5 °F 84.5 °F 63.0 °F 50% 29.89 in 10.0 mi WSW 19.6 mph 26.5 mph N/A   Scattered Clouds
1:58 PM 84.4 °F 84.6 °F 61.0 °F 45% 29.86 in 10.0 mi SW 21.9 mph 26.5 mph N/A   Scattered Clouds
2:58 PM 86.4 °F 85.4 °F 58.3 °F 38% 29.84 in 10.0 mi SW 15.0 mph 21.9 mph N/A   Partly Cloudy
3:58 PM 86.4 °F 85.2 °F 57.0 °F 37% 29.82 in 10.0 mi WSW 19.6 mph 26.5 mph N/A   Clear
4:58 PM 84.4 °F 84.0 °F 59.0 °F 42% 29.81 in 10.0 mi SW 19.6 mph - N/A   Partly Cloudy
5:58 PM 82.8 °F 82.8 °F 59.4 °F 45% 29.81 in 10.0 mi SW 13.8 mph - N/A   Clear
6:58 PM 80.4 °F 81.1 °F 59.7 °F 49% 29.81 in 10.0 mi SW 11.5 mph - N/A   Clear
7:58 PM 78.1 °F - 60.8 °F 55% 29.81 in 10.0 mi SSW 6.9 mph - N/A   Clear
8:58 PM 76.5 °F - 60.4 °F 58% 29.83 in 10.0 mi SSW 5.8 mph - N/A   Mostly Cloudy
9:58 PM 75.2 °F - 61.9 °F 63% 29.83 in 10.0 mi South 6.9 mph - N/A   Mostly Cloudy
10:58 PM 73.8 °F - 63.1 °F 69% 29.83 in 10.0 mi SSW 10.4 mph - N/A   Clear
11:58 PM 71.8 °F - 63.7 °F 76% 29.83 in 10.0 mi South 5.8 mph - N/A   Mostly Cloudy